TimeCDT,TemperatureF,Dew PointF,Humidity,Sea Level PressureIn,VisibilityMPH,Wind Direction,Wind SpeedMPH,Gust SpeedMPH,PrecipitationIn,Events,Conditions,WindDirDegrees,DateUTC
12:15 AM,53.6,42.8,67,30.14,10.0,North,8.1,-,N/A,,Clear,360,2013-09-13 05:15:00
12:35 AM,53.6,41.0,62,30.15,10.0,North,5.8,-,N/A,,Clear,360,2013-09-13 05:35:00
12:55 AM,51.8,41.0,67,30.15,10.0,North,9.2,-,N/A,,Clear,360,2013-09-13 05:55:00
1:15 AM,51.8,42.8,71,30.15,10.0,NNE,10.4,-,N/A,,Clear,20,2013-09-13 06:15:00
1:35 AM,51.8,41.0,67,30.15,10.0,North,13.8,19.6,N/A,,Clear,10,2013-09-13 06:35:00
1:55 AM,51.8,39.2,62,30.16,10.0,North,10.4,16.1,N/A,,Clear,360,2013-09-13 06:55:00
2:15 AM,50.0,39.2,66,30.16,10.0,North,8.1,-,N/A,,Clear,360,2013-09-13 07:15:00
2:35 AM,50.0,39.2,66,30.16,10.0,North,8.1,-,N/A,,Clear,360,2013-09-13 07:35:00
2:55 AM,50.0,39.2,66,30.16,10.0,North,6.9,-,N/A,,Clear,350,2013-09-13 07:55:00
3:15 AM,48.2,39.2,71,30.17,10.0,NNW,5.8,-,N/A,,Clear,340,2013-09-13 08:15:00
3:35 AM,46.4,39.2,76,30.17,10.0,NNW,6.9,-,N/A,,Clear,340,2013-09-13 08:35:00
3:55 AM,46.4,41.0,81,30.16,10.0,NNW,8.1,-,N/A,,Clear,330,2013-09-13 08:55:00
4:15 AM,46.4,41.0,81,30.16,10.0,NNW,11.5,-,N/A,,Clear,340,2013-09-13 09:15:00
4:35 AM,46.4,41.0,81,30.16,10.0,NNW,10.4,-,N/A,,Clear,340,2013-09-13 09:35:00
4:55 AM,46.4,39.2,76,30.17,10.0,NNW,9.2,-,N/A,,Clear,340,2013-09-13 09:55:00
5:15 AM,46.4,39.2,76,30.17,10.0,North,9.2,-,N/A,,Clear,350,2013-09-13 10:15:00
5:35 AM,46.4,39.2,76,30.18,10.0,NNW,10.4,-,N/A,,Clear,340,2013-09-13 10:35:00
5:55 AM,46.4,39.2,76,30.18,10.0,North,10.4,-,N/A,,Clear,350,2013-09-13 10:55:00
6:15 AM,44.6,39.2,81,30.19,10.0,North,9.2,-,N/A,,Clear,350,2013-09-13 11:15:00
6:35 AM,44.6,39.2,81,30.20,10.0,North,8.1,-,N/A,,Clear,350,2013-09-13 11:35:00
6:45 AM,46.4,39.2,76,30.20,10.0,North,6.9,-,N/A,,Clear,350,2013-09-13 11:45:00
6:55 AM,44.6,39.2,81,30.20,10.0,North,9.2,-,N/A,,Clear,350,2013-09-13 11:55:00
7:45 AM,48.2,39.2,71,30.20,10.0,North,11.5,16.1,N/A,,Clear,350,2013-09-13 12:45:00
8:45 AM,53.6,39.2,58,30.20,10.0,North,11.5,-,N/A,,Clear,350,2013-09-13 13:45:00
9:45 AM,55.4,39.2,54,30.22,10.0,NNW,16.1,-,N/A,,Clear,330,2013-09-13 14:45:00
10:45 AM,57.2,39.2,51,30.23,10.0,NNE,9.2,-,N/A,,Scattered Clouds,20,2013-09-13 15:45:00
12:45 PM,60.8,37.4,42,30.21,10.0,North,10.4,16.1,N/A,,Scattered Clouds,10,2013-09-13 17:45:00
1:45 PM,62.6,37.4,39,30.19,10.0,North,8.1,17.3,N/A,,Clear,10,2013-09-13 18:45:00
2:45 PM,62.6,35.6,37,30.18,10.0,NNE,9.2,-,N/A,,Scattered Clouds,20,2013-09-13 19:45:00
3:45 PM,62.6,42.8,48,30.18,10.0,NE,9.2,-,N/A,,Clear,40,2013-09-13 20:45:00
4:45 PM,60.8,42.8,52,30.18,10.0,ENE,9.2,-,N/A,,Clear,60,2013-09-13 21:45:00
5:45 PM,60.8,42.8,52,30.18,10.0,ENE,9.2,-,N/A,,Clear,60,2013-09-13 22:45:00
6:45 PM,57.2,42.8,59,30.18,10.0,NNE,8.1,-,N/A,,Clear,30,2013-09-13 23:45:00
7:45 PM,55.4,42.8,63,30.18,10.0,NNE,4.6,-,N/A,,Clear,20,2013-09-14 00:45:00
8:45 PM,53.6,42.8,67,30.19,10.0,North,4.6,-,N/A,,Clear,350,2013-09-14 01:45:00
9:15 PM,50.0,42.8,76,30.19,10.0,North,4.6,-,N/A,,Clear,350,2013-09-14 02:15:00
9:35 PM,50.0,42.8,76,30.18,10.0,North,3.5,-,N/A,,Clear,360,2013-09-14 02:35:00
9:55 PM,50.0,42.8,76,30.18,10.0,North,3.5,-,N/A,,Clear,10,2013-09-14 02:55:00
10:15 PM,50.0,41.0,71,30.18,10.0,North,3.5,-,N/A,,Clear,360,2013-09-14 03:15:00
10:35 PM,50.0,41.0,71,30.18,10.0,North,3.5,-,N/A,,Clear,350,2013-09-14 03:35:00
10:55 PM,46.4,41.0,81,30.17,10.0,Calm,Calm,-,N/A,,Clear,0,2013-09-14 03:55:00
11:15 PM,48.2,42.8,82,30.17,10.0,Calm,Calm,-,N/A,,Clear,0,2013-09-14 04:15:00
11:35 PM,48.2,42.8,82,30.17,10.0,Calm,Calm,-,N/A,,Clear,0,2013-09-14 04:35:00
11:55 PM,46.4,41.0,81,30.16,10.0,Calm,Calm,-,N/A,,Clear,0,2013-09-14 04:55:00